Weather History for Clinton-Sherman, OK

Change the Weather History Date:

Friday, July 26, 2013

  Actual Average Record
Temperature  
Mean Temperature 76 °F -  
Max Temperature 87 °F 95 °F 108 °F (2011)
Min Temperature 69 °F 70 °F 55 °F (2004)
Cooling Degree Days 12    
Growing Degree Days 26 (Base 50)    
Moisture  
Dew Point 69 °F    
Average Humidity 88    
Maximum Humidity 100    
Minimum Humidity 51    
Precipitation  
Precipitation 1.17 in - - ()
Sea Level Pressure  
Sea Level Pressure 30.00 in    
Wind  
Wind Speed 13 mph (NNE)    
Max Wind Speed 24 mph    
Max Gust Speed 29 mph    
Visibility 7 miles    
Events Fog , Rain , Thunderstorm    
Averages and records for this station are not official NWS values.
T = Trace of Precipitation, MM = Missing Value Source: NWS Daily Summary

Daily Weather History Graph

Daily Weather History Graph

Search for Another Location

Airport:

Trip Planner

Search our weather history database for the weather conditions in past years. The results will help you decide how hot, cold, wet, or windy it might be!

Date:

Astronomy

Jul. 26, 2013 Rise Set
Actual Time 6:41 AM CDT 8:44 PM CDT
Civil Twilight 6:12 AM CDT 9:13 PM CDT
Nautical Twilight 5:38 AM CDT 9:47 PM CDT
Astronomical Twilight 5:01 AM CDT 10:24 PM CDT
Moon 11:13 PM CDT (7/26) 11:06 AM CDT (7/26)
Length of Visible Light 15h 00m
Length of Day
14h 03m
Waning Gibbous, 80% of the Moon is Illuminated
Jul 26
Waning Gibbous
Jul 29
Last Quarter
Aug 6
New
Aug 14
First Quarter
Aug 20
Full

Hourly Weather History & Observations

Time (CDT) Temp. Heat Index Dew Point Humidity Pressure Visibility Wind Dir Wind Speed Gust Speed Precip Events Conditions
12:53 AM 73.0 °F - 71.1 °F 93% 29.97 in 9.0 mi SE 13.8 mph - 0.00 in Rain Light Rain
1:37 AM 73.4 °F - 71.6 °F 94% 30.01 in 5.0 mi SE 18.4 mph - 0.02 in   Mostly Cloudy
1:53 AM 73.0 °F - 72.0 °F 96% 29.94 in 5.0 mi SE 16.1 mph - 0.02 in   Overcast
2:05 AM 73.4 °F - 71.6 °F 94% 30.00 in 5.0 mi SSE 16.1 mph - N/A   Mostly Cloudy
2:53 AM 73.0 °F - 72.0 °F 96% 29.92 in 8.0 mi SSE 13.8 mph - 0.02 in   Scattered Clouds
3:01 AM 73.4 °F - 71.6 °F 94% 29.97 in 7.0 mi SSE 16.1 mph - N/A   Mostly Cloudy
3:19 AM 71.6 °F - 71.6 °F 100% 29.95 in 5.0 mi SSE 18.4 mph - N/A Thunderstorm Mostly Cloudy
3:28 AM 71.6 °F - 71.6 °F 100% 29.96 in 5.0 mi South 13.8 mph - 0.00 in Rain , Thunderstorm Light Rain
3:35 AM 71.6 °F - 71.6 °F 100% 29.96 in 4.0 mi SSW 8.1 mph 19.6 mph 0.04 in Rain , Thunderstorm Heavy Thunderstorms and Rain
3:53 AM 72.0 °F - 71.1 °F 97% 29.92 in 8.0 mi NNW 12.7 mph 16.1 mph 0.05 in Thunderstorm Thunderstorm
4:00 AM 71.6 °F - 71.6 °F 100% 29.99 in 1.8 mi North 19.6 mph 24.2 mph 0.19 in Rain , Thunderstorm Heavy Thunderstorms and Rain
4:12 AM 71.6 °F - 71.6 °F 100% 29.99 in 1.2 mi NNW 15.0 mph 24.2 mph 0.55 in Rain , Thunderstorm Heavy Thunderstorms and Rain
4:27 AM 71.6 °F - 71.6 °F 100% 29.98 in 4.0 mi Calm Calm - 0.83 in Rain , Thunderstorm Light Thunderstorms and Rain
4:38 AM 73.4 °F - 71.6 °F 94% 29.99 in 10.0 mi NNW 8.1 mph - 0.83 in Thunderstorm Thunderstorm
4:53 AM 72.0 °F - 71.1 °F 97% 29.94 in 9.0 mi NNE 5.8 mph - 0.84 in Rain , Thunderstorm Light Thunderstorms and Rain
5:02 AM 71.6 °F - 71.6 °F 100% 30.00 in 3.0 mi NNE 8.1 mph - 0.08 in Rain Heavy Rain
5:05 AM 71.6 °F - 71.6 °F 100% 29.99 in 1.8 mi ENE 11.5 mph - 0.23 in Rain Heavy Rain
5:11 AM 71.6 °F - 71.6 °F 100% 29.98 in 1.5 mi NE 8.1 mph - 0.24 in Rain , Thunderstorm Light Thunderstorms and Rain
5:15 AM 71.6 °F - 71.6 °F 100% 29.98 in 3.0 mi NE 6.9 mph - 0.24 in Rain , Thunderstorm Light Thunderstorms and Rain
5:34 AM 71.6 °F - 71.6 °F 100% 29.99 in 10.0 mi ENE 8.1 mph - 0.24 in Thunderstorm Overcast
5:41 AM 71.6 °F - 69.8 °F 94% 29.99 in 10.0 mi ENE 15.0 mph - 0.24 in   Overcast
5:53 AM 71.1 °F - 70.0 °F 96% 29.93 in 10.0 mi East 13.8 mph - 0.24 in   Overcast
6:18 AM 69.8 °F - 68.0 °F 94% 29.99 in 10.0 mi East 11.5 mph - N/A   Overcast
6:53 AM 69.1 °F - 68.0 °F 96% 29.95 in 10.0 mi NNE 6.9 mph - N/A   Overcast
7:08 AM 69.8 °F - 69.8 °F 100% 30.00 in 10.0 mi ENE 6.9 mph - N/A   Overcast
7:25 AM 69.8 °F - 69.8 °F 100% 30.01 in 10.0 mi NE 5.8 mph - N/A   Overcast
7:46 AM 69.8 °F - 69.8 °F 100% 30.01 in 1.5 mi ENE 3.5 mph - N/A   Overcast
7:50 AM 69.8 °F - 69.8 °F 100% 30.01 in 0.5 mi ENE 3.5 mph - N/A Fog Fog
7:53 AM 70.0 °F - 70.0 °F 100% 29.96 in 0.2 mi East 4.6 mph - N/A Fog Fog
8:47 AM 69.8 °F - 69.8 °F 100% 30.03 in 1.0 mi NNW 5.8 mph - N/A   Mist
8:53 AM 70.0 °F - 70.0 °F 100% 29.97 in 2.0 mi NNW 6.9 mph - N/A   Overcast
9:01 AM 71.6 °F - 69.8 °F 94% 30.03 in 9.0 mi NNW 9.2 mph - N/A   Overcast
9:40 AM 71.6 °F - 69.8 °F 94% 30.04 in 10.0 mi NNW 10.4 mph - N/A   Overcast
9:53 AM 70.0 °F - 69.1 °F 97% 29.99 in 10.0 mi NNW 13.8 mph - N/A   Overcast
10:00 AM 69.8 °F - 69.8 °F 100% 30.05 in 10.0 mi NNW 16.1 mph - N/A   Overcast
10:43 AM 73.4 °F - 69.8 °F 88% 30.05 in 10.0 mi North 18.4 mph 24.2 mph N/A   Overcast
10:53 AM 75.0 °F - 70.0 °F 84% 29.99 in 10.0 mi North 17.3 mph 24.2 mph N/A   Overcast
11:10 AM 73.4 °F - 69.8 °F 88% 30.06 in 10.0 mi North 18.4 mph - N/A   Overcast
11:48 AM 77.0 °F - 68.0 °F 74% 30.07 in 10.0 mi North 24.2 mph 28.8 mph N/A   Mostly Cloudy
11:53 AM 77.0 °F - 68.0 °F 74% 30.01 in 10.0 mi North 20.7 mph 28.8 mph N/A   Overcast
12:49 PM 78.8 °F - 66.2 °F 65% 30.08 in 10.0 mi North 20.7 mph - N/A   Overcast
12:53 PM 79.0 °F - 66.9 °F 66% 30.01 in 10.0 mi North 19.6 mph - N/A   Overcast
1:53 PM 80.1 °F 82.1 °F 66.0 °F 62% 30.01 in 10.0 mi North 17.3 mph 27.6 mph N/A   Mostly Cloudy
2:53 PM 82.9 °F 85.0 °F 66.0 °F 56% 30.01 in 10.0 mi NNE 16.1 mph 25.3 mph N/A   Mostly Cloudy
3:53 PM 84.9 °F 86.6 °F 64.9 °F 51% 30.00 in 10.0 mi North 15.0 mph 27.6 mph N/A   Mostly Cloudy
4:53 PM 84.9 °F 86.6 °F 64.9 °F 51% 29.99 in 10.0 mi NNE 21.9 mph 28.8 mph N/A   Scattered Clouds
5:53 PM 84.0 °F 85.4 °F 64.0 °F 51% 29.99 in 10.0 mi NNE 18.4 mph - N/A   Partly Cloudy
6:53 PM 84.0 °F 85.4 °F 64.0 °F 51% 29.98 in 10.0 mi NNE 20.7 mph - N/A   Partly Cloudy
7:53 PM 81.0 °F 83.0 °F 66.0 °F 60% 29.99 in 10.0 mi NE 16.1 mph - N/A   Clear
8:53 PM 77.0 °F - 66.0 °F 69% 30.03 in 10.0 mi NNE 11.5 mph - N/A   Clear
9:53 PM 73.0 °F - 66.9 °F 81% 30.06 in 10.0 mi North 8.1 mph - N/A   Clear
10:53 PM 72.0 °F - 66.9 °F 84% 30.07 in 10.0 mi North 6.9 mph - N/A   Clear
11:53 PM 70.0 °F - 66.0 °F 87% 30.08 in 10.0 mi NNW 6.9 mph - N/A   Clear